Location: Miss�
(46.9484°N, 0.1922°W)
Time: 08:20:38
(UTC+00:00)

CZ-2C R/B - Pass Details

Date: 02 March 2021
Orbit: 784 x 871 km, 98.2° (Epoch: 11 April)

Event Time Altitude Azimuth Distance (km) Brightness Sun altitude
Rises 19:59:43 0° 8° (N) 3,440 6.0 -23.1°
Reaches altitude 10° 20:02:14 10° 2° (N) 2,488 5.3 -23.5°
Maximum altitude 20:07:23 42° 293° (WNW) 1,181 3.9 -24.4°
Drops below altitude 10° 20:12:24 10° 224° (SW) 2,419 5.4 -25.2°
Sets 20:14:49 0° 217° (SW) 3,334 6.0 -25.6°
